Location: Conover
(35.7170°N, 81.2250°W)
Time: 18:15:09
(UTC-05:00)

Daily predictions for brighter satellites

Satellite Brightness Start Highest point End
(mag) Time Altitude Azimuth Time Altitude Azimuth Time Altitude Azimuth
Ariane Rocket 4.2 18:32:47 10° S 18:37:43 50° W 18:42:41 10° NNW
IRAS Rocket 4.5 18:32:41 10° SSE 18:38:18 83° WSW 18:43:58 10° NNW
Cosmos 158 Rocket 4.4 18:34:45 10° SSW 18:39:35 65° WNW 18:44:27 10° NNE
Iridium 4 Rocket 3.7 18:37:05 10° NNE 18:41:21 36° E 18:45:18 10° SSE
ALOS 2.3 18:38:17 10° SSE 18:42:57 86° ENE 18:47:39 10° N
Cosmos 44 3.8 18:39:45 10° NNW 18:44:51 72° WSW 18:50:08 10° SSE
Cosmos 1908 Rocket 3.6 18:41:32 10° S 18:46:00 77° E 18:50:28 10° N
MOS 1 4.3 18:42:08 10° SSE 18:47:46 76° ENE 18:53:27 10° N
YAOGAN 1 3.3 18:44:07 10° S 18:48:22 58° W 18:52:38 10° NNW
Cosmos 1602 4.3 18:47:16 10° SSE 18:50:49 34° E 18:54:21 10° NNE
Okean 1 3.5 18:52:01 10° N 18:55:52 48° E 18:59:43 10° SSE
MOS 1-B Rocket 4.2 18:51:48 10° S 18:58:09 79° WSW 19:03:53 10° NNW
Alouette 2 Rocket 4.4 18:55:37 10° SE 18:58:18 20° E 19:01:01 10° NE
ATLAS CENTAUR R/B 3.4 19:00:07 10° NNE 19:01:48 12° NE 19:02:49 11° ENE
Cosmos 2227 4.2 18:59:30 10° SSW 19:05:13 79° ESE 19:10:56 10° NNE
Cosmos 1633 4.1 19:02:05 10° SSW 19:05:26 40° W 19:08:50 10° N
EO 1 Del DPAF 3.5 19:05:48 10° N 19:09:36 70° WNW 19:13:23 10° SSW
Meteor 2-4 Rocket 4.4 19:06:04 10° NNE 19:11:05 31° ENE 19:15:56 10° SE
Cosmos 1891 Rocket 4.4 19:05:35 10° N 19:11:47 86° E 19:17:49 10° S
ARGOS Delta rocket 4.3 19:08:26 10° NNE 19:12:41 34° E 19:16:45 10° SSE
Cosmos 2034 Rocket 4.0 19:07:08 10° N 19:13:31 74° E 19:19:50 10° SSE
Meteor 1-18 Rocket 4.5 19:09:43 10° NNW 19:15:16 73° W 19:20:46 10° S
Cosmos 1975 Rocket 3.1 19:11:13 10° N 19:15:37 59° E 19:20:02 10° SSE
Cosmos 1437 Rocket 3.1 19:13:17 10° SSW 19:17:19 71° W 19:21:26 10° N
Cosmos 2251 Rocket 4.0 19:13:19 10° SSE 19:18:01 35° E 19:22:43 10° NE
Cosmos 1816 Rocket 4.5 19:15:15 10° S 19:21:32 68° E 19:27:50 10° NNE
GPS 2-05 Rocket1 2.6 19:19:11 10° WSW 19:22:22 68° S 19:23:37 32° E
SeaSat 1 3.6 19:21:53 20° ENE 19:23:13 23° NE 19:27:02 10° N
Meteor 1-19 Rocket 4.2 19:18:25 10° N 19:23:53 59° E 19:29:22 10° SSE
SPOT 3 Rocket 4.1 19:19:58 10° S 19:25:06 61° WSW 19:30:16 10° NNW
Cosmos 1536 3.5 19:21:31 10° SSE 19:25:08 32° E 19:28:46 10° NNE
Centaur D-1A AC-32 4.3 19:21:32 10° WSW 19:26:12 46° SSE 19:37:51 18° ESE
Lacrosse 5 rocket 2.0 19:23:44 10° S 19:26:55 27° SE 19:27:09 27° ESE
Cosmos 1943 3.8 19:24:35 10° N 19:29:43 34° ENE 19:32:10 24° ESE
Meteor 1-11 Rocket 3.7 19:25:52 10° S 19:31:20 63° E 19:36:58 10° NNE
Cosmos 1184 Rocket 3.5 19:30:01 10° N 19:32:30 33° NE 19:32:30 33° NE
USA 215 3.3 19:27:29 12° NE 19:33:26 59° SE 19:39:51 10° SSW
Sakura Rocket 4.5 19:32:30 10° WSW 19:37:17 42° S 19:40:56 22° SE
ERS-2 2.3 19:33:44 10° S 19:37:24 75° WSW 19:41:06 10° NNW
Resurs 01 Rocket 2.7 19:38:44 26° NE 19:38:44 26° NE 19:41:41 10° NNE
Gbstr 26 Del rocket 4.4 19:38:07 10° W 19:41:21 27° NNW 19:43:58 14° NNE
Cosmos 1536 Rocket 4.4 19:42:04 10° NNE 19:45:08 31° NE 19:45:08 31° NE
Envisat 2.9 19:44:23 10° SSE 19:49:23 66° ENE 19:54:26 10° N
SL-16 R/B 4.5 19:46:33 10° NW 19:51:04 25° WSW 19:55:32 10° SSW
FREGAT/IRIS 4.4 19:48:43 10° SSW 19:51:24 32° W 19:54:07 10° NNW
HJ-1C 4.1 19:50:15 10° S 19:53:36 56° W 19:56:58 10° NNW
Meteor 2-9 4.5 19:55:01 10° S 20:00:24 79° E 20:05:54 10° N
CZ-4C R/B 3.2 19:56:08 10° NNW 20:03:11 49° NE 20:05:22 40° E
OAO 2 Rocket 3.2 19:58:45 10° W 20:03:42 73° S 20:04:29 59° SE
Meteor 1-23 Rocket 4.2 20:02:20 10° N 20:08:08 63° E 20:09:44 45° SE
Cosmos 1110 Rocket 4.5 20:04:22 10° NNW 20:09:35 61° WSW 20:14:48 10° S
Cosmos 1603 4.2 20:04:57 10° NNW 20:10:28 57° WSW 20:15:55 10° S
SJ-6B 4.0 20:08:21 10° S 20:11:55 41° W 20:15:35 10° NNW
COSMOS 2455 3.8 20:09:30 10° SW 20:15:16 47° WNW 20:21:05 10° NNE
Thor Agena Rocket 4.4 20:11:15 10° N 20:16:07 49° WNW 20:20:56 10° SW
Cosmos 2263 Rocket 2.6 20:11:21 10° SSW 20:16:49 60° WNW 20:22:21 10° NNE
BREEZE-M DEB (TANK) 4.4 20:17:03 10° WSW 20:20:16 46° NNW 20:27:39 14° NE
Spot 2 Rocket 4.3 20:40:29 45° NNW 20:40:29 45° NNW 20:43:58 10° NNW
ATLAS CENTAUR R/B 3.1 20:36:51 10° NNW 20:39:07 31° NW 20:39:07 31° NW
Cosmos 2279 Rocket 4.0 20:39:18 10° N 20:44:58 75° NNW 20:44:58 75° NNW
SeaSat 1 3.8 21:01:41 36° WNW 21:01:41 36° WNW 21:05:09 10° NW
Resurs 01 Rocket 4.3 21:16:18 17° WNW 21:16:18 17° WNW 21:17:51 10° NW
USA 215 4.3 21:14:51 35° N 21:16:12 39° NW 21:22:08 10° W
CZ-4C R/B 4.1 21:44:56 10° NW 21:50:38 36° W 21:50:38 36° W
